Torna al catalogo

CZ-6A DEB

AttivoPO
NORAD 60709·DEBRIS·🇨🇳 China

Lanciato Aug 6, 2024 da Taiyuan Satellite Launch Center

Loading…

Prossimi Passaggi (prossime 24 ore)

TLE

AggiornatoSource: Space-Track

Epoca: Sep 14, 2026, 07:03 UTC

1 60709U 24140DN  26257.29439865  .00000679  00000-0  27036-3 0  9994
2 60709  88.9951 263.6298 0014914 236.1710 123.8065 14.27478404108789

Traccia CZ-6A DEB in tempo reale con AllMySat

Download on the App Store